Home   Weather   Mazatlan   Past weeks

Flag for Mexico Past Weather in Mazatlan, Sinaloa, Mexico — Yesterday and Last 2 Weeks

Now
55 °F

Clear.


Feels Like: 55 °F
Forecast: 60 / 74 °F
Wind: No wind

Location: Culiacan - Sin.

Current Time: Feb 20, 2017 at 6:37:58 am

Latest Report: Feb 20, 2017 at 5:41 am


Visibility: 10 mi

Pressure: 30.06 "Hg

Humidity: 94%

Dew Point: 54 °F

Location of MazatlanLocation

Past Weather in Mazatlan — Graph

°F

Mazatlan Temperature Yesterday

Maximum temperature yesterday: 73 °F (at 2:40 pm)
Minimum temperature yesterday: 55 °F (at 5:53 am)
Average temperature yesterday: 65 °F

High & Low Weather Summary for the Past Weeks

 TemperatureHumidityPressure
High90 °F (Feb 6, 2:41 pm)100% (Feb 9, 5:53 am)30.10 "Hg (Feb 9, 5:53 am)
Low50 °F (Feb 14, 5:54 am)22% (Feb 6, 2:41 pm)29.78 "Hg (Feb 18, 5:40 pm)
Average70 °F63%29.95 "Hg
* Reported Feb 4 9:40 pm — Feb 19 9:40 pm, Mazatlan, Weather by CustomWeather, © 2017

Note: Actual official high and low records may vary slightly from our data, if they occured in-between our weather recording intervals... More about our weather records

Advertising

Mazatlan Weather History for the Previous 24 Hours

Scroll right to see more
 ConditionsComfort  
Time TempWeatherWind HumidityBarometerVisibility
9:40 pm
Sun, Feb 19
61 °FClear.No wind83%30.05 "Hg10 mi
8:40 pm61 °FClear.No wind83%30.05 "Hg10 mi
7:40 pm64 °FClear.7 mph73%30.06 "Hg10 mi
6:40 pm66 °FClear.7 mph64%30.00 "Hg10 mi
5:40 pm70 °FSunny.12 mph53%29.98 "Hg10 mi
4:40 pm73 °FScattered clouds.6 mph41%29.97 "Hg10 mi
3:40 pm73 °FScattered clouds.5 mph41%29.97 "Hg10 mi
2:40 pm73 °FScattered clouds.5 mph38%29.97 "Hg10 mi
1:42 pm72 °FSunny.9 mph41%29.96 "Hg10 mi
12:43 pm70 °FSunny.8 mph53%30.00 "Hg10 mi
11:40 am70 °FSunny.No wind53%30.00 "Hg10 mi
10:44 am64 °FPartly sunny.5 mph73%30.01 "Hg10 mi
9:42 am63 °FPartly sunny.No wind83%30.00 "Hg10 mi
8:41 am59 °FOvercast.No wind94%29.99 "Hg10 mi
7:40 am55 °FPartly sunny.No wind94%29.96 "Hg10 mi
6:40 am55 °FScattered clouds.No wind100%29.94 "Hg10 mi
Weather by CustomWeather, © 2017

See weather overviewHow to use our weather pages